Regional Weather Roundup
Issued by NWS

Home | Current Version | Previous Version | Graphics & Text | Print | Product List | Glossary On
Versions: 1 2 3 4 5 6 7 8 9 10 11 12 13 14 15 16 17 18 19 20 21 22 23 24 25 26 27 28 29 30 31 32 33 34 35 36 37 38 39 40 41 42 43 44 45 46 47 48 49 50
000
ASUS43 KDMX 180301
RWRIA

WEATHER ROUNDUP FOR IOWA
NATIONAL WEATHER SERVICE DES MOINES IA
1000 PM CDT THU AUG 17 2017

NOTE: "FAIR" INDICATES FEW OR NO CLOUDS BELOW 12,000 FEET WITH NO
SIGNIFICANT WEATHER AND/OR OBSTRUCTIONS TO VISIBILITY.

* - THESE STATIONS ARE NOT NWS STATIONS...THUS NOT UNDER NWS
QUALITY CONTROL.  THEY ALSO DO NOT REPORT WEATHER SUCH
AS PRECIPITATION OR FOG.

IAZ001>003-012>014-020>022-031>034-043>046-180400-
   NORTHWEST IOWA

CITY           SKY/WX    TMP DP  RH WIND       PRES   REMARKS
CARROLL *      CLOUDY    64  63  94 W7        29.91R
CHEROKEE *     CLEAR     65  62  91 CALM      29.91R
DENISON *      CLEAR     63  61  94 CALM      29.93R
LE MARS *      CLEAR     64  64 100 S3        29.90S
ORANGE CITY *  CLEAR     70  66  88 CALM      29.91S
SHELDON *      PTCLDY    61  59  94 CALM      29.90R
SIOUX CITY     CLEAR     67  63  87 CALM      29.90R
SPENCER        CLEAR     64  62  93 NE6       29.91R
STORM LAKE *   CLEAR     66  61  82 W7        29.92R
$$

IAZ055>058-069>071-079>083-090>094-180400-
   SOUTHWEST IOWA

CITY           SKY/WX    TMP DP  RH WIND       PRES   REMARKS
ATLANTIC *     CLEAR     66  63  88 CALM      29.92R
AUDUBON *      CLEAR     63  59  88 CALM      29.94R
CLARINDA *       N/A     61  61 100 CALM      29.95R
COUNCIL BLFS * CLEAR     70  63  78 S5        29.93R HAZE
CRESTON *      CLEAR     66  61  82 W7        29.94R
HARLAN  *      CLEAR     64  63  94 CALM      29.96R
LAMONI         CLEAR     68  60  75 SW5       29.93R
RED OAK *      CLEAR     64  63  94 CALM      29.93R
SHENANDOAH *   CLEAR     64  63  94 S5        29.93R
$$

IAZ047>049-059>061-072>074-084-180400-
   CENTRAL IOWA

CITY           SKY/WX    TMP DP  RH WIND       PRES   REMARKS
AMES           CLEAR     66  64  93 W8        29.88R
ANKENY *       CLEAR     72  61  68 NW8       29.89R
BOONE *        CLEAR     70  63  78 W8        29.89R
CHARITON *     CLEAR     70  59  68 W6        29.91R
DES MOINES     CLEAR     72  60  66 W5        29.89R
GRINNELL*      CLEAR     66  62  85 W5        29.88S
KNOXVILLE *    CLEAR     66  59  77 W7        29.88R
MARSHALLTOWN   CLEAR     65  64  97 NW6       29.87R
NEWTON *       CLEAR     66  63  88 W7        29.88R
PELLA *        CLEAR     69  61  76 SW3       29.89R
PERRY *          N/A     64  63  94 W6        29.90R
$$

IAZ004>006-015-016-023>025-035-036-180400-
   NORTH CENTRAL IOWA

CITY           SKY/WX    TMP DP  RH WIND       PRES   REMARKS
ALGONA *       CLEAR     64  64 100 CALM      29.90R
CLARION *      CLEAR     64  64 100 NW5       29.89R
ESTHERVILLE    CLEAR     60  60 100 W6        29.89R
FORT DODGE *   CLEAR     64  59  82 CALM      29.90R
MASON CITY     CLEAR     63  60  90 W9        29.89R
FOREST CITY *    N/A     64  61  88 NW7       29.88R
WEBSTER CITY * CLEAR     64  63  94 NW6       29.87R
IOWA FALLS *     N/A     65  63  94 NW3       29.90R
$$

IAZ007>011-017>019-026>030-037>042-050>054-066-180400-
   NORTHEAST IOWA

CITY           SKY/WX    TMP DP  RH WIND       PRES   REMARKS
CEDAR RAPIDS   PTCLDY    65  63  93 W8        29.84R
CHARLES CITY * CLEAR     66  64  94 NW9       29.86R
CLINTON *      CLEAR     67  65  93 W8        29.84R
DECORAH *      MOCLDY    66  64  94 VRB6G14   29.82R
DUBUQUE        PTCLDY    67  63  87 W8        29.82R
MONTICELLO *   CLEAR     68  63  83 W6        29.83R
OELWEIN *      MOCLDY    68  64  88 W9        29.85R
WATERLOO       CLEAR     68  61  78 W8        29.85R
$$

IAZ064-065-067-068-078-180400-
   EAST CENTRAL IOWA

CITY           SKY/WX    TMP DP  RH WIND       PRES   REMARKS
DAVENPORT      PTCLDY    70  64  81 W7        29.86R
IOWA CITY      CLOUDY    70  63  78 W5        29.86R
MUSCATINE *    PTCLDY    72  63  73 W3        29.86R
QUAD CITIES    PTCLDY    73  64  73 W9        29.84R
$$

IAZ062-063-075>077-085>089-095>099-180400-
   SOUTHEAST IOWA

CITY           SKY/WX    TMP DP  RH WIND       PRES   REMARKS
BURLINGTON     PTCLDY    72  62  71 CALM      29.87R
FAIRFIELD *    CLEAR     66  61  82 SW5       29.88R
FORT MADISON * PTCLDY    70  63  78 W5        29.89R
KEOKUK *       CLEAR     70  63  78 W3        29.88R
OSKALOOSA *      N/A     64  61  89 W6        29.89R
OTTUMWA        CLEAR     68  62  81 SW5       29.89R
WASHINGTON *   CLEAR     68  64  88 W3        29.88R
$$

ABBREVIATIONS USED IN REMARKS
   TC - TEMPERATURES IN CELSIUS
  WCI - WIND CHILL INDEX
   HX - HEAT INDEX
  VSB - VISIBILITY
$$





USA.gov is the U.S. government's official web portal to all federal, state and local government web resources and services.